Location: Praha
(50.0830°N, 14.4670°E)
Time: 16:51:23
(UTC+01:00)

ISS - Pass Details

Date: 10 November 2018
Orbit: 401 x 408 km, 51.6° (Epoch: 20 November)

Event Time Altitude Azimuth Distance (km) Brightness Sun altitude
Exits shadow 05:58:20 17° 270° (W) 1,097 -2.3 -11.1°
Maximum altitude 06:00:24 37° 210° (SSW) 646 -3.0 -10.8°
Drops below altitude 10° 06:03:27 10° 141° (SE) 1,461 -0.1 -10.3°
Sets 06:05:37 0° 133° (SE) 2,319 1.2 -10.0°
